Home > Time Zones > World Clock > Weather > France > Lens > Past weeks

Flag for France Weather past 2 weeks in Lens, France

Now
59 °F

Clear.


Feels Like: 59 °F
Forecast: 57 / 66 °F
Wind: 5 mph from Southwest

Location: Lille Airport

Current Time: Aug 29, 2014 at 8:00:52 AM

Latest Report: Aug 29, 2014 at 7:30 AM


Visibility: 10 mi

Pressure: 29.98 "Hg

Humidity: 88%

Dew point: 55 °F

Location of LensLocation

Historic Weather in Lens — Graph

°F

Lens temperature yesterday

Maximum temperature yesterday: 70 °F (at 1:30 PM)
Minimum temperature yesterday: 57 °F (at 11:30 PM)
Average temperature yesterday: 63 °F

Past Weeks' High & Low Weather Summary

 TemperatureHumidityPressure
High72 °F (Aug 16, 3:30 PM)100% (Aug 15, 2:00 AM)30.15 "Hg (Aug 15, 2:00 AM)
Low46 °F (Aug 20, 5:00 AM)43% (Aug 23, 5:00 PM)29.59 "Hg (Aug 26, 2:00 AM)
Average59 °F81%29.93 "Hg
* Reported Aug 14 7:00 AM — Aug 29 7:00 AM, Lens, Weather by CustomWeather, © 2014

Note: Actual official high and low records may vary slightly from our data, if they occured in-between our weather recording intervals... More about our weather records

Advertising

Lens weather history for previous 24 hours

 ConditionsComfort  
Time TempWeatherWind HumidityBarometerVisibility
7:00 AM
Aug 29
59 °FClear.5 mph94%29.98 "Hg10 mi
6:30 AM59 °FClear.5 mph88%29.98 "Hg10 mi
6:00 AM59 °FLight rain. Clear.6 mph94%29.98 "HgN/A
5:30 AM61 °FClear.5 mph88%29.98 "Hg10 mi
5:00 AM61 °FClear.5 mph88%29.98 "Hg10 mi
4:30 AM61 °FMostly cloudy.5 mph88%29.98 "HgN/A
4:00 AM61 °FMostly cloudy.3 mph88%29.98 "HgN/A
3:30 AM61 °FMostly cloudy.3 mph88%29.98 "HgN/A
3:00 AM61 °FMostly cloudy.3 mph88%29.98 "HgN/A
2:30 AM61 °FOvercast.5 mph88%29.98 "HgN/A
2:00 AM61 °FPassing clouds.6 mph88%29.98 "HgN/A
1:30 AM59 °FPassing clouds.5 mph94%29.98 "HgN/A
1:00 AM57 °FPassing clouds.3 mph94%29.98 "HgN/A
12:30 AM57 °FClear.5 mph88%29.98 "Hg10 mi
12:00 AM57 °FClear.2 mph94%29.98 "Hg10 mi
11:30 PM
Aug 28
57 °FClear.2 mph94%29.95 "Hg10 mi
11:00 PM59 °FClear.1 mph82%29.95 "Hg10 mi
10:30 PM61 °FClear.2 mph83%29.95 "Hg10 mi
10:00 PM61 °FClear.3 mph83%29.98 "Hg10 mi
9:30 PM63 °FSunny.6 mph77%29.95 "Hg10 mi
9:00 PM63 °FSunny.5 mph77%29.95 "Hg10 mi
8:30 PM63 °FSunny.7 mph77%29.95 "Hg10 mi
8:00 PM66 °FSunny.9 mph68%29.95 "Hg10 mi
7:30 PM68 °FSunny.13 mph64%29.95 "Hg10 mi
7:00 PM70 °FScattered clouds.12 mph64%29.95 "HgN/A
6:30 PM70 °FBroken clouds.8 mph69%29.92 "HgN/A
6:00 PM66 °FPartly sunny.12 mph78%29.92 "HgN/A
5:30 PM66 °FBroken clouds.14 mph78%29.92 "HgN/A
5:00 PM68 °FPartly sunny.10 mph83%29.92 "HgN/A
4:30 PM66 °FDrizzle. Partly sunny.9 mph88%29.92 "Hg4 mi
4:00 PM68 °FBroken clouds.9 mph83%29.92 "HgN/A
3:30 PM66 °FPartly sunny.10 mph94%29.92 "HgN/A
3:00 PM66 °FLight rain. Partly sunny.12 mph88%29.92 "Hg3 mi
2:30 PM70 °FLight rain. Partly sunny.9 mph83%29.92 "Hg5 mi
1:30 PM70 °FPartly sunny.10 mph78%29.92 "HgN/A
1:00 PM68 °FPartly sunny.8 mph88%29.92 "HgN/A
12:30 PM68 °FPartly sunny.8 mph88%29.92 "HgN/A
12:00 PM66 °FPartly sunny.9 mph88%29.92 "HgN/A
11:30 AM64 °FPartly sunny.9 mph94%29.92 "HgN/A
11:00 AM64 °FPartly sunny.8 mph88%29.92 "HgN/A
10:30 AM64 °FPartly sunny.10 mph94%29.92 "HgN/A
10:00 AM63 °FPartly sunny.9 mph94%29.92 "HgN/A
9:30 AM63 °FLow clouds.8 mph94%29.92 "HgN/A
9:00 AM61 °FLow clouds.9 mph100%29.92 "HgN/A
8:30 AM61 °FMostly cloudy.9 mph100%29.92 "HgN/A
8:00 AM61 °FLight rain. Mostly cloudy.9 mph94%29.92 "Hg6 mi
Weather by CustomWeather, © 2014

See weather overviewHow to use our weather pages